UAL25 KSFO-KPDX

Flight info

Callsign UAL25
Flight time 1h 21m
Altitude 36000
Route TRUKN2 GRTFL MACHU TMBRS4
Aircraft B738/M-SDE2E3FGHIRWXY/LB1

Departure

Time 2026-05-06 00:52
Airport San Francisco International Airport (KSFO)

Arrival

Time 2026-05-06 02:13
Airport Portland International Airport (KPDX)
Time Latitude Longitude Altitude Speed Heading
2026-05-06 00:36 37.61711 -122.38033 20 ft 0 kts 276°
2026-05-06 00:43 37.61709 -122.38008 21 ft 4 kts 283°
2026-05-06 00:44 37.61699 -122.37977 21 ft 4 kts 305°
2026-05-06 00:44 37.61682 -122.37958 23 ft 4 kts 356°
2026-05-06 00:44 37.61674 -122.37958 21 ft 0 kts 12°
2026-05-06 00:47 37.61681 -122.37956 23 ft 3 kts 12°
2026-05-06 00:47 37.61709 -122.37930 20 ft 8 kts 39°
2026-05-06 00:47 37.61761 -122.37868 20 ft 13 kts 44°
2026-05-06 00:47 37.61796 -122.37757 20 ft 17 kts 109°
2026-05-06 00:48 37.61748 -122.37606 20 ft 21 kts 112°
2026-05-06 00:48 37.61682 -122.37424 20 ft 24 kts 118°
2026-05-06 00:48 37.61598 -122.37222 20 ft 27 kts 117°
2026-05-06 00:48 37.61511 -122.37013 20 ft 26 kts 117°
2026-05-06 00:49 37.61428 -122.36817 21 ft 24 kts 118°
2026-05-06 00:49 37.61334 -122.36661 21 ft 23 kts 145°
2026-05-06 00:49 37.61246 -122.36499 21 ft 22 kts 117°
2026-05-06 00:49 37.61177 -122.36327 20 ft 22 kts 117°
2026-05-06 00:50 37.61107 -122.36162 20 ft 21 kts 118°
2026-05-06 00:50 37.61050 -122.36000 20 ft 20 kts 90°
2026-05-06 00:50 37.61142 -122.35886 20 ft 20 kts 23°
2026-05-06 00:50 37.61201 -122.35877 20 ft 7 kts 332°
2026-05-06 00:51 37.61223 -122.35928 22 ft 7 kts 281°
2026-05-06 00:51 37.61242 -122.35996 21 ft 18 kts 296°
2026-05-06 00:51 37.61427 -122.36447 20 ft 99 kts 297°
2026-05-06 00:51 37.61854 -122.37482 37 ft 164 kts 298°
2026-05-06 00:52 37.62434 -122.38830 767 ft 173 kts 300°
2026-05-06 00:52 37.63012 -122.40081 2048 ft 160 kts 299°
2026-05-06 00:52 37.63684 -122.41311 2696 ft 188 kts 316°
2026-05-06 00:52 37.64986 -122.42007 2979 ft 223 kts 351°
2026-05-06 00:53 37.66595 -122.41642 3383 ft 255 kts 25°
2026-05-06 00:53 37.67867 -122.40013 4080 ft 269 kts 64°
2026-05-06 00:53 37.68384 -122.37815 5333 ft 263 kts 75°
2026-05-06 00:53 37.68802 -122.35536 6281 ft 269 kts 74°
2026-05-06 00:54 37.69248 -122.33219 7175 ft 273 kts 73°
2026-05-06 00:54 37.69727 -122.30891 8108 ft 275 kts 72°
2026-05-06 00:54 37.70225 -122.28549 9083 ft 276 kts 72°
2026-05-06 00:54 37.70733 -122.26196 10024 ft 279 kts 71°
2026-05-06 00:55 37.71480 -122.23936 10567 ft 292 kts 53°
2026-05-06 00:55 37.73053 -122.22141 10766 ft 316 kts 27°
2026-05-06 00:55 37.75216 -122.21436 11022 ft 338 kts
2026-05-06 00:55 37.77612 -122.21440 11635 ft 347 kts 360°
2026-05-06 00:56 37.80042 -122.21532 12415 ft 351 kts 359°
2026-05-06 00:56 37.82492 -122.21641 13213 ft 354 kts 359°
2026-05-06 00:56 37.84971 -122.21745 13975 ft 357 kts 360°
2026-05-06 00:56 37.87463 -122.21838 14684 ft 360 kts 360°
2026-05-06 00:57 37.89944 -122.21921 15425 ft 362 kts
2026-05-06 00:57 37.92474 -122.21997 16093 ft 366 kts
2026-05-06 00:57 37.95037 -122.22069 16754 ft 370 kts
2026-05-06 00:57 37.97637 -122.22140 17408 ft 375 kts
2026-05-06 00:58 38.00252 -122.22210 18085 ft 378 kts
2026-05-06 00:58 38.02887 -122.22281 18681 ft 381 kts
2026-05-06 00:58 38.05537 -122.22351 19010 ft 383 kts
2026-05-06 00:58 38.08211 -122.22422 19043 ft 387 kts
2026-05-06 00:59 38.10921 -122.22494 19502 ft 390 kts
2026-05-06 00:59 38.13635 -122.22567 20189 ft 390 kts
2026-05-06 00:59 38.16353 -122.22640 20847 ft 391 kts
2026-05-06 00:59 38.19086 -122.22713 21367 ft 394 kts
2026-05-06 01:00 38.21815 -122.22786 21884 ft 398 kts
2026-05-06 01:00 38.24597 -122.22860 22394 ft 401 kts
2026-05-06 01:00 38.27401 -122.22935 22902 ft 404 kts
2026-05-06 01:00 38.30223 -122.23012 23442 ft 406 kts
2026-05-06 01:01 38.33063 -122.23088 23885 ft 409 kts
2026-05-06 01:01 38.35914 -122.23178 24319 ft 411 kts
2026-05-06 01:01 38.38780 -122.23394 24762 ft 413 kts 359°
2026-05-06 01:01 38.41657 -122.23691 25173 ft 415 kts 358°
2026-05-06 01:02 38.44546 -122.24019 25563 ft 418 kts 358°
2026-05-06 01:02 38.47413 -122.24348 25964 ft 420 kts 358°
2026-05-06 01:02 38.50333 -122.24678 26365 ft 421 kts 358°
2026-05-06 01:02 38.53263 -122.25000 26749 ft 424 kts 359°
2026-05-06 01:03 38.55255 -122.25215 26999 ft 425 kts 359°
2026-05-06 01:03 38.58209 -122.25529 27370 ft 427 kts 359°
2026-05-06 01:03 38.61135 -122.25836 27719 ft 429 kts 359°
2026-05-06 01:03 38.64120 -122.26149 28076 ft 430 kts 359°
2026-05-06 01:04 38.67111 -122.26461 28411 ft 432 kts 359°
2026-05-06 01:04 38.70129 -122.26776 28725 ft 434 kts 359°
2026-05-06 01:04 38.73153 -122.27091 29086 ft 435 kts 359°
2026-05-06 01:04 38.76164 -122.27407 29572 ft 433 kts 358°
2026-05-06 01:05 38.79162 -122.27723 30129 ft 430 kts 359°
2026-05-06 01:05 38.82131 -122.28035 30554 ft 427 kts 359°
2026-05-06 01:05 38.85103 -122.28348 30863 ft 428 kts 359°
2026-05-06 01:05 38.88071 -122.28658 31194 ft 428 kts 359°
2026-05-06 01:06 38.91039 -122.28970 31592 ft 427 kts 359°
2026-05-06 01:06 38.93957 -122.29277 31990 ft 425 kts 359°
2026-05-06 01:06 38.96904 -122.29587 32364 ft 424 kts 359°
2026-05-06 01:06 38.99851 -122.29898 32694 ft 424 kts 359°
2026-05-06 01:07 39.02793 -122.30208 33038 ft 423 kts 359°
2026-05-06 01:07 39.05727 -122.30518 33387 ft 423 kts 359°
2026-05-06 01:07 39.08656 -122.30827 33734 ft 422 kts 359°
2026-05-06 01:07 39.11583 -122.31136 34074 ft 421 kts 359°
2026-05-06 01:08 39.14503 -122.31445 34381 ft 420 kts 359°
2026-05-06 01:08 39.17413 -122.31753 34680 ft 419 kts 359°
2026-05-06 01:08 39.20323 -122.32062 34964 ft 419 kts 359°
2026-05-06 01:08 39.23224 -122.32369 35266 ft 418 kts 359°
2026-05-06 01:09 39.26113 -122.32676 35578 ft 416 kts 359°
2026-05-06 01:09 39.28961 -122.32979 35856 ft 416 kts 359°
2026-05-06 01:09 39.31848 -122.33285 35967 ft 418 kts 359°
2026-05-06 01:10 39.37648 -122.33902 35966 ft 417 kts 359°
2026-05-06 01:10 39.43418 -122.34518 35976 ft 415 kts 359°
2026-05-06 01:11 39.49164 -122.35132 35978 ft 413 kts 359°
2026-05-06 01:11 39.54892 -122.35744 35983 ft 412 kts 359°
2026-05-06 01:12 39.60575 -122.36353 35986 ft 412 kts 359°
2026-05-06 01:12 39.66312 -122.36968 35986 ft 413 kts 359°
2026-05-06 01:13 39.72051 -122.37585 35990 ft 414 kts 359°
2026-05-06 01:13 39.77806 -122.38205 35990 ft 416 kts 358°
2026-05-06 01:14 39.86479 -122.39140 36002 ft 418 kts 358°
2026-05-06 01:14 39.92277 -122.39768 36003 ft 419 kts 358°
2026-05-06 01:15 39.98055 -122.40394 36003 ft 419 kts 358°
2026-05-06 01:15 40.03880 -122.41026 36009 ft 420 kts 358°
2026-05-06 01:16 40.09712 -122.41660 36017 ft 420 kts 358°
2026-05-06 01:16 40.15553 -122.42296 36018 ft 420 kts 358°
2026-05-06 01:17 40.21380 -122.42932 36014 ft 420 kts 358°
2026-05-06 01:17 40.27167 -122.43565 36013 ft 420 kts 358°
2026-05-06 01:18 40.32989 -122.44202 35999 ft 419 kts 358°
2026-05-06 01:18 40.38814 -122.44841 35997 ft 419 kts 358°
2026-05-06 01:19 40.44631 -122.45480 35998 ft 419 kts 358°
2026-05-06 01:19 40.50426 -122.46117 36000 ft 418 kts 358°
2026-05-06 01:20 40.56232 -122.46757 35995 ft 418 kts 358°
2026-05-06 01:20 40.62005 -122.47395 35994 ft 418 kts 358°
2026-05-06 01:21 40.67800 -122.48036 35990 ft 417 kts 358°
2026-05-06 01:21 40.73595 -122.48677 35993 ft 418 kts 358°
2026-05-06 01:22 40.79397 -122.49321 35987 ft 419 kts 358°
2026-05-06 01:22 40.85209 -122.49968 35985 ft 419 kts 358°
2026-05-06 01:23 40.91033 -122.50617 35982 ft 419 kts 358°
2026-05-06 01:23 40.96808 -122.51262 35986 ft 418 kts 358°
2026-05-06 01:24 41.02611 -122.51910 35975 ft 419 kts 358°
2026-05-06 01:24 41.08423 -122.52560 35971 ft 418 kts 358°
2026-05-06 01:25 41.14223 -122.53211 35976 ft 418 kts 357°
2026-05-06 01:25 41.20014 -122.53862 35984 ft 417 kts 358°
2026-05-06 01:26 41.25802 -122.54514 35970 ft 417 kts 357°
2026-05-06 01:26 41.31546 -122.55162 35962 ft 416 kts 357°
2026-05-06 01:27 41.37328 -122.55815 35976 ft 417 kts 357°
2026-05-06 01:27 41.43124 -122.56471 35962 ft 418 kts 357°
2026-05-06 01:28 41.48940 -122.57130 35964 ft 419 kts 357°
2026-05-06 01:28 41.54724 -122.57749 35968 ft 420 kts 359°
2026-05-06 01:29 41.60575 -122.58126 35967 ft 420 kts 359°
2026-05-06 01:29 41.66387 -122.58458 35965 ft 420 kts 359°
2026-05-06 01:30 41.72222 -122.58818 35973 ft 419 kts 359°
2026-05-06 01:30 41.78057 -122.59196 35970 ft 419 kts 359°
2026-05-06 01:31 41.83880 -122.59577 35974 ft 418 kts 359°
2026-05-06 01:31 41.89660 -122.59957 35965 ft 418 kts 359°
2026-05-06 01:32 41.95471 -122.60338 35970 ft 417 kts 359°
2026-05-06 01:32 42.01276 -122.60720 35973 ft 417 kts 359°
2026-05-06 01:33 42.07069 -122.61102 35964 ft 416 kts 359°
2026-05-06 01:33 42.12851 -122.61483 35960 ft 416 kts 359°
2026-05-06 01:34 42.18634 -122.61866 35962 ft 416 kts 359°
2026-05-06 01:34 42.24415 -122.62250 35961 ft 415 kts 359°
2026-05-06 01:35 42.30148 -122.62633 35968 ft 415 kts 359°
2026-05-06 01:35 42.35929 -122.63019 35962 ft 416 kts 359°
2026-05-06 01:36 42.41722 -122.63406 35964 ft 416 kts 359°
2026-05-06 01:36 42.47520 -122.63795 35962 ft 417 kts 359°
2026-05-06 01:37 42.53285 -122.64182 35965 ft 417 kts 359°
2026-05-06 01:37 42.59090 -122.64573 35965 ft 418 kts 359°
2026-05-06 01:38 42.64900 -122.64965 35970 ft 418 kts 359°
2026-05-06 01:38 42.70709 -122.65357 35970 ft 418 kts 359°
2026-05-06 01:39 42.76541 -122.65752 35969 ft 418 kts 358°
2026-05-06 01:39 42.82304 -122.66143 35989 ft 417 kts 358°
2026-05-06 01:40 42.88098 -122.66536 35979 ft 416 kts 358°
2026-05-06 01:40 42.93885 -122.66930 35988 ft 417 kts 358°
2026-05-06 01:41 42.99681 -122.67325 35993 ft 417 kts 358°
2026-05-06 01:41 43.05482 -122.67722 36011 ft 417 kts 358°
2026-05-06 01:42 43.11283 -122.68119 36003 ft 418 kts 358°
2026-05-06 01:42 43.17093 -122.68517 36001 ft 418 kts 358°
2026-05-06 01:43 43.22869 -122.68914 36008 ft 418 kts 358°
2026-05-06 01:43 43.28677 -122.69314 36016 ft 418 kts 358°
2026-05-06 01:44 43.34491 -122.69560 35984 ft 417 kts
2026-05-06 01:44 43.40139 -122.67885 36036 ft 414 kts
2026-05-06 01:45 43.45903 -122.68415 36021 ft 416 kts 356°
2026-05-06 01:45 43.51601 -122.68837 36298 ft 408 kts
2026-05-06 01:46 43.54431 -122.68646 36463 ft 407 kts
2026-05-06 01:46 43.57244 -122.68056 36558 ft 410 kts 11°
2026-05-06 01:46 43.62986 -122.67668 36705 ft 417 kts 356°
2026-05-06 01:47 43.68765 -122.68487 36840 ft 416 kts 354°
2026-05-06 01:47 43.74509 -122.69389 36989 ft 414 kts 355°
2026-05-06 01:48 43.80195 -122.70245 36824 ft 403 kts 355°
2026-05-06 01:48 43.82952 -122.70650 36159 ft 402 kts 355°
2026-05-06 01:48 43.85733 -122.71054 35158 ft 404 kts 355°
2026-05-06 01:49 43.88550 -122.71462 34000 ft 410 kts 355°
2026-05-06 01:49 43.91414 -122.71877 32571 ft 418 kts 355°
2026-05-06 01:49 43.94344 -122.72302 31272 ft 424 kts 354°
2026-05-06 01:49 43.97270 -122.72729 30325 ft 421 kts 354°
2026-05-06 01:50 44.00166 -122.73152 29448 ft 414 kts 354°
2026-05-06 01:50 44.03008 -122.73568 28596 ft 407 kts 354°
2026-05-06 01:50 44.04865 -122.73840 28087 ft 403 kts 354°
2026-05-06 01:50 44.07639 -122.74246 27555 ft 399 kts 354°
2026-05-06 01:51 44.11234 -122.74772 26878 ft 393 kts 354°
2026-05-06 01:51 44.13952 -122.75165 26392 ft 389 kts 355°
2026-05-06 01:51 44.16637 -122.75233 26035 ft 382 kts
2026-05-06 01:51 44.19257 -122.74980 25798 ft 377 kts
2026-05-06 01:52 44.21907 -122.74696 25565 ft 386 kts
2026-05-06 01:52 44.23682 -122.74504 25255 ft 384 kts
2026-05-06 01:52 44.26331 -122.74223 24804 ft 380 kts
2026-05-06 01:52 44.28963 -122.73951 24330 ft 378 kts
2026-05-06 01:53 44.31577 -122.73687 23867 ft 375 kts
2026-05-06 01:53 44.34178 -122.73428 23314 ft 374 kts
2026-05-06 01:53 44.36764 -122.73171 22789 ft 371 kts
2026-05-06 01:53 44.39323 -122.72919 22286 ft 367 kts
2026-05-06 01:54 44.41835 -122.72670 21811 ft 364 kts
2026-05-06 01:54 44.44382 -122.72419 21335 ft 361 kts
2026-05-06 01:54 44.46841 -122.72175 20869 ft 358 kts
2026-05-06 01:54 44.49320 -122.71929 20412 ft 356 kts
2026-05-06 01:55 44.51784 -122.71684 19953 ft 353 kts
2026-05-06 01:55 44.54229 -122.71441 19513 ft 351 kts
2026-05-06 01:55 44.56628 -122.71203 19383 ft 340 kts
2026-05-06 01:55 44.58957 -122.70972 19101 ft 333 kts
2026-05-06 01:56 44.61281 -122.70739 18654 ft 334 kts
2026-05-06 01:56 44.63603 -122.70506 18192 ft 334 kts
2026-05-06 01:56 44.65914 -122.70273 17752 ft 332 kts
2026-05-06 01:56 44.68211 -122.70042 17315 ft 331 kts
2026-05-06 01:57 44.70503 -122.69812 16877 ft 329 kts
2026-05-06 01:57 44.72778 -122.69583 16467 ft 327 kts
2026-05-06 01:57 44.75046 -122.69354 16051 ft 326 kts
2026-05-06 01:57 44.77300 -122.69127 15662 ft 324 kts
2026-05-06 01:58 44.79541 -122.68901 15255 ft 322 kts
2026-05-06 01:58 44.81771 -122.68677 14833 ft 321 kts
2026-05-06 01:58 44.83969 -122.68456 14444 ft 320 kts
2026-05-06 01:58 44.86187 -122.68232 14042 ft 319 kts
2026-05-06 01:59 44.88402 -122.68010 13610 ft 318 kts
2026-05-06 01:59 44.90606 -122.67788 13188 ft 317 kts
2026-05-06 01:59 44.92771 -122.67569 13053 ft 307 kts
2026-05-06 01:59 44.94869 -122.67358 12897 ft 297 kts
2026-05-06 02:00 44.96902 -122.67152 12716 ft 290 kts
2026-05-06 02:00 44.98919 -122.66948 12369 ft 290 kts
2026-05-06 02:00 45.00927 -122.66745 12042 ft 289 kts
2026-05-06 02:00 45.02910 -122.66544 11717 ft 287 kts
2026-05-06 02:01 45.04901 -122.66341 11399 ft 287 kts
2026-05-06 02:01 45.06888 -122.66139 11069 ft 286 kts
2026-05-06 02:01 45.08873 -122.65938 10742 ft 286 kts
2026-05-06 02:01 45.10857 -122.65736 10427 ft 285 kts
2026-05-06 02:02 45.12825 -122.65535 10212 ft 280 kts
2026-05-06 02:02 45.14755 -122.65339 10051 ft 274 kts
2026-05-06 02:02 45.16652 -122.65145 9748 ft 273 kts
2026-05-06 02:02 45.18545 -122.64952 9449 ft 272 kts
2026-05-06 02:03 45.20432 -122.64759 9149 ft 271 kts
2026-05-06 02:03 45.22307 -122.64568 8856 ft 270 kts
2026-05-06 02:03 45.24182 -122.64361 8561 ft 269 kts
2026-05-06 02:03 45.25912 -122.63475 8259 ft 268 kts 31°
2026-05-06 02:04 45.27485 -122.62068 7981 ft 267 kts 32°
2026-05-06 02:04 45.29046 -122.60647 7693 ft 267 kts 32°
2026-05-06 02:04 45.30611 -122.59223 7399 ft 266 kts 32°
2026-05-06 02:04 45.32161 -122.57819 7106 ft 261 kts 32°
2026-05-06 02:05 45.33680 -122.56447 6811 ft 255 kts 32°
2026-05-06 02:05 45.35162 -122.55112 6547 ft 250 kts 32°
2026-05-06 02:05 45.36613 -122.53804 6278 ft 251 kts 32°
2026-05-06 02:05 45.37850 -122.52112 5929 ft 249 kts 61°
2026-05-06 02:06 45.38496 -122.49856 5616 ft 243 kts 70°
2026-05-06 02:06 45.39012 -122.47640 5451 ft 227 kts 70°
2026-05-06 02:06 45.39518 -122.45570 5335 ft 218 kts 69°
2026-05-06 02:06 45.40030 -122.43575 5226 ft 213 kts 68°
2026-05-06 02:07 45.40542 -122.41625 5133 ft 208 kts 68°
2026-05-06 02:07 45.41050 -122.39716 5058 ft 206 kts 68°
2026-05-06 02:07 45.41584 -122.37805 4871 ft 210 kts 60°
2026-05-06 02:07 45.42618 -122.36400 4613 ft 211 kts 22°
2026-05-06 02:08 45.44029 -122.36228 4348 ft 203 kts 347°
2026-05-06 02:08 45.45359 -122.36827 4082 ft 199 kts 340°
2026-05-06 02:08 45.46653 -122.37509 3799 ft 196 kts 339°
2026-05-06 02:08 45.47919 -122.38176 3537 ft 193 kts 339°
2026-05-06 02:09 45.49180 -122.38834 3275 ft 191 kts 340°
2026-05-06 02:09 45.50346 -122.39687 2981 ft 188 kts 314°
2026-05-06 02:09 45.51098 -122.41131 2787 ft 182 kts 305°
2026-05-06 02:09 45.51827 -122.42574 2555 ft 177 kts 304°
2026-05-06 02:10 45.52476 -122.44033 2319 ft 169 kts 301°
2026-05-06 02:10 45.53031 -122.45429 2136 ft 153 kts 299°
2026-05-06 02:10 45.53533 -122.46722 1911 ft 144 kts 299°
2026-05-06 02:10 45.54019 -122.47980 1721 ft 145 kts 299°
2026-05-06 02:11 45.54501 -122.49232 1554 ft 142 kts 298°
2026-05-06 02:11 45.54976 -122.50490 1353 ft 145 kts 298°
2026-05-06 02:11 45.55449 -122.51766 1140 ft 145 kts 298°
2026-05-06 02:11 45.55933 -122.53030 919 ft 148 kts 300°
2026-05-06 02:12 45.56437 -122.54286 701 ft 145 kts 300°
2026-05-06 02:12 45.56944 -122.55552 502 ft 148 kts 299°
2026-05-06 02:12 45.57436 -122.56838 325 ft 150 kts 299°
2026-05-06 02:12 45.57941 -122.58130 121 ft 146 kts 299°
2026-05-06 02:13 45.58414 -122.59323 32 ft 126 kts 298°
2026-05-06 02:13 45.58767 -122.60228 31 ft 83 kts 299°
2026-05-06 02:13 45.58841 -122.60604 30 ft 2 kts 232°
2026-05-06 02:15 45.58837 -122.60606 29 ft 3 kts 204°
2026-05-06 02:16 45.58776 -122.60568 28 ft 17 kts 126°
2026-05-06 02:16 45.58704 -122.60387 29 ft 23 kts 120°
2026-05-06 02:16 45.58639 -122.60187 32 ft 22 kts 94°
2026-05-06 02:16 45.58639 -122.60143 32 ft 0 kts 86°
2026-05-06 02:17 45.58639 -122.60141 32 ft 2 kts 86°
2026-05-06 02:17 45.58642 -122.60083 33 ft 10 kts 86°
2026-05-06 02:17 45.58641 -122.59946 36 ft 17 kts 96°
2026-05-06 02:18 45.58651 -122.59744 36 ft 25 kts 45°
2026-05-06 02:18 45.58790 -122.59678 33 ft 11 kts 357°
2026-05-06 02:18 45.58802 -122.59676 35 ft 0 kts 11°
2026-05-06 02:18 45.58825 -122.59649 35 ft 7 kts 44°
2026-05-06 02:19 45.58830 -122.59642 34 ft 0 kts 45°